Regional Weather Roundup
Issued by NWS

Home | Current Version | Previous Version | Graphics & Text | Print | Product List | Glossary On
Versions: 1 2 3 4 5 6 7 8 9 10 11 12 13 14 15 16 17 18 19 20 21 22 23 24 25 26 27 28 29 30 31 32 33 34 35 36 37 38 39 40 41 42 43 44 45 46 47 48 49 50
673
ASUS43 KLOT 262204
RWRIL

ILLINOIS REGIONAL WEATHER ROUNDUP
NATIONAL WEATHER SERVICE CHICAGO/ROMEOVILLE IL
500 PM CDT TUE SEP 26 2017

NOTE: "FAIR" INDICATES FEW OR NO CLOUDS BELOW 12,000 FEET WITH NO
SIGNIFICANT WEATHER AND/OR OBSTRUCTIONS TO VISIBILITY.

* THESE STATIONS ARE NOT UNDER NWS QUALITY CONTROL. THEY ALSO MAY NOT
  REPORT WEATHER SUCH AS PRECIPITATION OR FOG.

ILZ001-002-007-009-015-016-024-262300-
NORTHWEST ILLINOIS

CITY           SKY/WX    TMP DP  RH WIND       PRES   REMARKS
MOLINE         CLOUDY    78  64  61 W13       29.96R HX  80
STERLING*      CLOUDY    80  68  66 NW13      29.94R HX  83
SAVANNA*       CLOUDY    78  66  67 NW13      29.96R
$$

ILZ003-004-008-010-011-017-018-262300-
NORTH CENTRAL ILLINOIS

CITY           SKY/WX    TMP DP  RH WIND       PRES   REMARKS
ROCKFORD       CLOUDY    80  66  62 NW10      29.93R HX  82
FREEPORT*      CLOUDY    76  66  70 W12       29.96R
ROCHELLE*      CLOUDY    82  67  61 NW10      29.93R HX  85
DE KALB*       MOSUNNY   85  65  51 W9G18     29.92R HX  87
PERU*          CLOUDY    82  65  55 NW9       29.92R HX  84
$$

ILZ005-006-012>014-019>023-262300-
NORTHEAST ILLINOIS

CITY           SKY/WX    TMP DP  RH WIND       PRES   REMARKS
CHICAGO-OHARE  PTSUNNY   90  58  33 W12G20    29.89S HX  89
CHICAGO-MIDWAY PTSUNNY   90  58  33 SW13G22   29.89S HX  89
AURORA         PTSUNNY   87  63  44 SW10      29.91S HX  88
LANSING*       MOSUNNY   88  63  43 SW13      29.91S HX  88
JOLIET*        PTSUNNY   90  61  38 SW7       29.90S HX  90
WAUKEGAN       MOSUNNY   87  62  43 SW7       29.88S HX  87
DUPAGE AIRPORT MOSUNNY   88  61  40 SW12      29.90S HX  88
KANKAKEE*      MOSUNNY   89  60  36 SW8       29.92S HX  89
WHEELING       SUNNY     90  58  33 SW12G22   29.90S HX  89
MORRIS*        MOSUNNY   89  60  36 W12       29.89F HX  88
ROMEOVILLE*    PTSUNNY   87  60  39 SW6       29.90S HX  86
NORTHERLY ISL    N/A     89  55  31 W7          N/A  HX  87
$$

LMZ740>746-262300-
SOUTHERN LAKE MICHIGAN

STATION/POSITION SKY/WX   TEMP    WIND        PRES    VSBY  WAVE
                          AIR SEA DIR/SP/G                  HT/PER
                          (F)     (DEG/KT/KT) (MB)    (MI)  (FT/S)
SOUTHERN BUOY              75 72  170/ 10/ 12 1012.3          1
WILMETTE HARBOR            80 71  210/  8/ 10   N/A           1/ 2
HARRISON CRIB              89     240/ 16/ 18   N/A
BURNHAM HARBOR             90     200/  7/ 14   N/A
CALUMET HARBOR             90     220/  8/ 15 1011.7F
BURNS HARBOR               87     210/ 10/ 15 1012.9F
MICHIGAN CITY              87     200/  9/ 10   N/A
MICHIGAN CITY 6N           80 74  220/  4/  6   N/A           1
ST. JOSEPH                 79 74  150/  2/  2 1012.3F         0
$$

ILZ025>027-034>036-040-047-049-050-058-095>099-262300-
WEST-CENTRAL ILLINOIS

CITY           SKY/WX    TMP DP  RH WIND       PRES   REMARKS
QUINCY         CLOUDY    78  65  63 NW15G24   29.97R HX  80
GALESBURG*     CLOUDY    77  65  68 NW15G23   29.98R
MACOMB*        CLOUDY    79  65  60 NW10      29.99R HX  81
JACKSONVILLE*  RAIN      77  66  69 N10G24    29.94R
PITTSFIELD*    CLOUDY    82  69  63 W8        29.97R HX  85
$$

ILZ028>032-037-038-041>044-048-051>054-059>061-262300-
CENTRAL ILLINOIS

CITY           SKY/WX    TMP DP  RH WIND       PRES   REMARKS
PONTIAC        MOSUNNY   90  60  37 SW12      29.92S HX  89
BLOOMINGTON    MOSUNNY   88  61  40 W12       29.94S HX  88
DECATUR        SUNNY     90  57  32 SW7       29.93S HX  88
PEORIA         SUNNY     88  61  40 W9G20     29.92S HX  88
LACON*         MOSUNNY   86  63  46 W7        29.91S HX  87
LINCOLN*       MOSUNNY   91  63  38 W5        29.92S HX  92
SPRINGFIELD    MOSUNNY   91  61  36 SW7       29.92S HX  91
TAYLORVILLE    SUNNY     89  59  36 SW6       29.93S HX  88
$$

ILZ033-039-045-046-055>057-062-063-262300-
EAST-CENTRAL ILLINOIS

CITY           SKY/WX    TMP DP  RH WIND       PRES   REMARKS
CHAMPAIGN      SUNNY     92  57  30 SW10      29.93S HX  90
RANTOUL*       SUNNY     90  62  39 SW8       29.93S HX  90
MATTOON        MOSUNNY   90  60  36 VRB6      29.93S HX  89
$$

ILZ079-100>102-262300-
SOUTHWEST ILLINOIS

CITY           SKY/WX    TMP DP  RH WIND       PRES   REMARKS
ALTON          MOSUNNY   90  64  43 W7        29.93F HX  91
BELLEVILLE     SUNNY     89  59  35 S6        29.91S HX  88
SPARTA*        MOSUNNY   90  61  38 SE3       29.94S HX  90
$$

ILZ064>066-069>071-074>076-080>082-084>086-088>090-092>094-262300-
SOUTH-CENTRAL ILLINOIS

CITY           SKY/WX    TMP DP  RH WIND       PRES   REMARKS
CARBONDALE     SUNNY     88  64  44 SW3       29.93F HX  89
CAIRO*         SUNNY     87  66  49 CALM      29.93S HX  89
EFFINGHAM*     SUNNY     91  60  35 S3        29.95S HX  90
MARION         MOSUNNY   91  63  38 W9        29.95S HX  92
MT. VERNON     MOSUNNY   90  63  40 SW7       29.94  HX  91
CENTRALIA*     MOSUNNY   92  63  37 SW5       29.93S HX  92
SALEM*         MOSUNNY   92  59  32 S5        29.94S HX  91
METROPOLIS*    SUNNY     86  67  53 CALM      29.95R HX  88
$$

ILZ067-068-072-073-078-083-087-091-262300-
SOUTHEAST ILLINOIS

CITY           SKY/WX    TMP DP  RH WIND       PRES   REMARKS
LAWRENCEVILLE  SUNNY     91  59  33 CALM      29.93S HX  90
FLORA*         SUNNY     92  60  33 W7        29.93S HX  91
FAIRFIELD*     MOSUNNY   90  59  35 CALM      29.92S HX  89
HARRISBURG*    CLOUDY    88  64  44 CALM      29.94S HX  89
ROBINSON*      SUNNY     89  62  40 CALM      29.94S HX  89
CARMI*         CLOUDY    92  62  37 E5        29.93R HX  92
$$

ABBREVIATIONS USED IN REMARKS
   TC - TEMPERATURE IN CELSIUS
  WCI - WIND CHILL INDEX
   HX - HEAT INDEX
  VSB - VISIBILITY
$$





USA.gov is the U.S. government's official web portal to all federal, state and local government web resources and services.